• In Deutschland
  • Länderverzeichnis
  • Für 7 Tage
  • Wassertemperatur
  • Satellitenkarten
  • Wetterkarte
  • Widgets
  • user-avatar
    Anmelden

    Stündliche Wetter Barra

    Heute, 27 Juni, Dienstag

    Zeit Temperatur Niederschläge Wind Luftdruck Luftfeuchtigkeit
    00:00 +20°C° 0 mm 4 m/S 752 mmHg 90%
    01:00 +20°C° 0 mm 4 m/S 752 mmHg 90%
    02:00 +20°C° 0 mm 4 m/S 752 mmHg 89%
    03:00 +20°C° 0 mm 4 m/S 752 mmHg 89%
    04:00 +20°C° 0 mm 3 m/S 752 mmHg 89%
    05:00 +20°C° 0 mm 3 m/S 752 mmHg 89%
    06:00 +20°C° 0 mm 4 m/S 752 mmHg 89%
    07:00 +20°C° 0 mm 4 m/S 752 mmHg 89%
    08:00 +20°C° 0 mm 4 m/S 752 mmHg 86%
    09:00 +21°C° 0 mm 4 m/S 752 mmHg 83%
    10:00 +22°C° 0 mm 3 m/S 753 mmHg 83%
    11:00 +22°C° 0,1 mm 3 m/S 752 mmHg 83%
    12:00 +22°C° 0,1 mm 3 m/S 752 mmHg 83%
    13:00 +22°C° 0,1 mm 3 m/S 752 mmHg 84%
    14:00 +22°C° 0,1 mm 3 m/S 752 mmHg 84%
    15:00 +22°C° 0,1 mm 4 m/S 752 mmHg 85%
    16:00 +22°C° 0,1 mm 4 m/S 751 mmHg 85%
    17:00 +22°C° 0 mm 4 m/S 752 mmHg 87%
    18:00 +21°C° 0 mm 4 m/S 752 mmHg 90%
    19:00 +21°C° 0 mm 4 m/S 752 mmHg 92%
    20:00 +21°C° 0,1 mm 4 m/S 752 mmHg 93%
    21:00 +21°C° 0,1 mm 4 m/S 752 mmHg 94%
    22:00 +21°C° 0,1 mm 4 m/S 753 mmHg 94%
    23:00 +20°C° 0,1 mm 4 m/S 753 mmHg 95%

    Morgen, 28 Juni, Mittwoch

    Zeit Temperatur Niederschläge Wind Luftdruck Luftfeuchtigkeit
    00:00 +20°C° 0,1 mm 4 m/S 752 mmHg 95%
    01:00 +20°C° 0,1 mm 3 m/S 752 mmHg 96%
    02:00 +20°C° 0,2 mm 3 m/S 752 mmHg 96%
    03:00 +20°C° 0,2 mm 3 m/S 752 mmHg 97%
    04:00 +19°C° 0,2 mm 3 m/S 751 mmHg 97%
    05:00 +20°C° 0,1 mm 3 m/S 751 mmHg 97%
    06:00 +20°C° 0,1 mm 3 m/S 752 mmHg 96%
    07:00 +20°C° 0,1 mm 3 m/S 752 mmHg 96%
    08:00 +21°C° 0,1 mm 3 m/S 752 mmHg 94%
    09:00 +22°C° 0,1 mm 3 m/S 752 mmHg 91%
    10:00 +22°C° 0,1 mm 3 m/S 752 mmHg 89%
    11:00 +24°C° 0,1 mm 3 m/S 752 mmHg 85%
    12:00 +25°C° 0,1 mm 3 m/S 752 mmHg 82%
    13:00 +25°C° 0,1 mm 3 m/S 752 mmHg 78%
    14:00 +25°C° 0,1 mm 3 m/S 751 mmHg 79%
    15:00 +25°C° 0,1 mm 3 m/S 751 mmHg 81%
    16:00 +25°C° 0,1 mm 3 m/S 751 mmHg 82%
    17:00 +22°C° 0,1 mm 3 m/S 751 mmHg 87%
    18:00 +21°C° 0,1 mm 3 m/S 751 mmHg 92%
    19:00 +20°C° 0,1 mm 3 m/S 752 mmHg 96%
    20:00 +20°C° 0,2 mm 3 m/S 752 mmHg 96%
    21:00 +20°C° 0,2 mm 3 m/S 753 mmHg 96%
    22:00 +20°C° 0,2 mm 3 m/S 753 mmHg 96%
    23:00 +20°C° 0,2 mm 3 m/S 753 mmHg 96%

    übermorgen, 29 Juni, Donnerstag

    Zeit Temperatur Niederschläge Wind Luftdruck Luftfeuchtigkeit
    00:00 +21°C° 0,2 mm 3 m/S 752 mmHg 96%
    01:00 +21°C° 0,2 mm 3 m/S 752 mmHg 96%
    02:00 +21°C° 0,2 mm 3 m/S 752 mmHg 96%
    03:00 +21°C° 0,2 mm 3 m/S 751 mmHg 96%
    04:00 +21°C° 0,2 mm 3 m/S 751 mmHg 96%
    05:00 +21°C° 0,1 mm 3 m/S 751 mmHg 96%
    06:00 +21°C° 0,1 mm 3 m/S 752 mmHg 97%
    07:00 +21°C° 0,1 mm 3 m/S 752 mmHg 97%
    08:00 +21°C° 0,2 mm 3 m/S 752 mmHg 95%
    09:00 +21°C° 0,2 mm 3 m/S 752 mmHg 94%
    10:00 +22°C° 0,2 mm 3 m/S 753 mmHg 93%
    11:00 +22°C° 0,2 mm 3 m/S 752 mmHg 91%
    12:00 +24°C° 0,2 mm 3 m/S 752 mmHg 88%
    13:00 +24°C° 0,2 mm 3 m/S 751 mmHg 86%
    14:00 +24°C° 0,1 mm 3 m/S 751 mmHg 86%
    15:00 +24°C° 0,1 mm 3 m/S 750 mmHg 85%
    16:00 +24°C° 0,1 mm 3 m/S 750 mmHg 85%
    17:00 +24°C° 0,1 mm 3 m/S 750 mmHg 88%
    18:00 +22°C° 0,1 mm 3 m/S 751 mmHg 91%
    19:00 +21°C° 0,1 mm 3 m/S 751 mmHg 95%
    20:00 +21°C° 0,1 mm 2 m/S 751 mmHg 95%
    21:00 +21°C° 0,1 mm 2 m/S 752 mmHg 95%
    22:00 +21°C° 0,1 mm 2 m/S 752 mmHg 95%
    23:00 +21°C° 0,2 mm 2 m/S 752 mmHg 95%

    30 Juni, Freitag

    Zeit Temperatur Niederschläge Wind Luftdruck Luftfeuchtigkeit
    00:00 +20°C° 0,2 mm 2 m/S 751 mmHg 96%
    01:00 +20°C° 0,2 mm 2 m/S 751 mmHg 96%
    02:00 +20°C° 0,2 mm 2 m/S 751 mmHg 97%
    03:00 +20°C° 0,2 mm 2 m/S 750 mmHg 97%
    04:00 +20°C° 0,2 mm 3 m/S 750 mmHg 97%
    05:00 +20°C° 0,1 mm 3 m/S 751 mmHg 97%
    06:00 +20°C° 0,1 mm 3 m/S 751 mmHg 97%
    07:00 +20°C° 0,1 mm 3 m/S 751 mmHg 97%
    08:00 +21°C° 0,1 mm 3 m/S 752 mmHg 93%
    09:00 +22°C° 0,1 mm 3 m/S 752 mmHg 88%
    10:00 +24°C° 0,1 mm 3 m/S 752 mmHg 84%
    11:00 +25°C° 0,3 mm 3 m/S 752 mmHg 81%
    12:00 +25°C° 0,3 mm 4 m/S 751 mmHg 78%
    13:00 +26°C° 0,3 mm 4 m/S 751 mmHg 76%
    14:00 +26°C° 0,1 mm 4 m/S 750 mmHg 77%
    15:00 +25°C° 0,1 mm 3 m/S 750 mmHg 79%
    16:00 +25°C° 0,1 mm 3 m/S 750 mmHg 81%
    17:00 +24°C° 0 mm 3 m/S 750 mmHg 86%
    18:00 +21°C° 0 mm 3 m/S 751 mmHg 91%
    19:00 +20°C° 0 mm 3 m/S 751 mmHg 97%
    20:00 +20°C° 0,1 mm 3 m/S 752 mmHg 97%
    21:00 +20°C° 0,1 mm 2 m/S 752 mmHg 97%
    22:00 +20°C° 0,1 mm 2 m/S 752 mmHg 97%
    23:00 +20°C° 0,1 mm 3 m/S 752 mmHg 97%

    1 Juli, Samstag

    Zeit Temperatur Niederschläge Wind Luftdruck Luftfeuchtigkeit
    00:00 +21°C° 0,1 mm 3 m/S 752 mmHg 96%
    01:00 +21°C° 0,1 mm 3 m/S 752 mmHg 95%
    02:00 +21°C° 0,2 mm 4 m/S 751 mmHg 95%
    03:00 +21°C° 0,2 mm 4 m/S 751 mmHg 95%
    04:00 +21°C° 0,2 mm 5 m/S 751 mmHg 96%
    05:00 +21°C° 0,2 mm 5 m/S 752 mmHg 96%
    06:00 +20°C° 0,2 mm 5 m/S 752 mmHg 95%
    07:00 +20°C° 0,2 mm 5 m/S 752 mmHg 95%
    08:00 +20°C° 0,1 mm 5 m/S 753 mmHg 94%
    09:00 +20°C° 0,1 mm 5 m/S 753 mmHg 92%
    10:00 +20°C° 0,1 mm 5 m/S 753 mmHg 90%
    11:00 +21°C° 0 mm 5 m/S 753 mmHg 88%
    12:00 +21°C° 0 mm 5 m/S 752 mmHg 85%
    13:00 +21°C° 0 mm 5 m/S 752 mmHg 83%
    14:00 +21°C° 0,1 mm 5 m/S 752 mmHg 84%
    15:00 +21°C° 0,1 mm 5 m/S 751 mmHg 85%
    16:00 +21°C° 0,1 mm 5 m/S 751 mmHg 86%
    17:00 +21°C° 0,2 mm 5 m/S 752 mmHg 88%
    18:00 +21°C° 0,2 mm 6 m/S 752 mmHg 90%
    19:00 +20°C° 0,2 mm 6 m/S 753 mmHg 91%
    20:00 +20°C° 0,2 mm 6 m/S 753 mmHg 92%
    21:00 +20°C° 0,2 mm 6 m/S 753 mmHg 92%
    22:00 +20°C° 0,2 mm 6 m/S 753 mmHg 92%
    23:00 +20°C° 0,4 mm 6 m/S 753 mmHg 93%

    2 Juli, Sonntag

    Zeit Temperatur Niederschläge Wind Luftdruck Luftfeuchtigkeit
    00:00 +20°C° 0,4 mm 6 m/S 753 mmHg 94%
    01:00 +20°C° 0,4 mm 5 m/S 752 mmHg 94%
    02:00 +20°C° 0,5 mm 5 m/S 752 mmHg 95%
    03:00 +20°C° 0,5 mm 5 m/S 752 mmHg 95%
    04:00 +20°C° 0,5 mm 5 m/S 752 mmHg 96%
    05:00 +20°C° 0,4 mm 5 m/S 752 mmHg 96%
    06:00 +20°C° 0,4 mm 5 m/S 752 mmHg 96%
    07:00 +20°C° 0,4 mm 5 m/S 753 mmHg 96%
    08:00 +20°C° 0,3 mm 5 m/S 753 mmHg 95%
    09:00 +21°C° 0,3 mm 5 m/S 753 mmHg 95%
    10:00 +21°C° 0,3 mm 5 m/S 753 mmHg 94%
    11:00 +21°C° 0,3 mm 5 m/S 753 mmHg 93%
    12:00 +21°C° 0,3 mm 5 m/S 752 mmHg 93%
    13:00 +22°C° 0,3 mm 5 m/S 752 mmHg 92%
    14:00 +22°C° 0,3 mm 5 m/S 752 mmHg 91%
    15:00 +22°C° 0,3 mm 5 m/S 752 mmHg 89%
    16:00 +22°C° 0,3 mm 5 m/S 752 mmHg 88%
    17:00 +22°C° 0,2 mm 5 m/S 752 mmHg 90%
    18:00 +21°C° 0,2 mm 5 m/S 752 mmHg 93%
    19:00 +21°C° 0,2 mm 5 m/S 753 mmHg 95%
    20:00 +21°C° 0,3 mm 5 m/S 753 mmHg 95%
    21:00 +21°C° 0,3 mm 4 m/S 753 mmHg 96%
    22:00 +21°C° 0,3 mm 4 m/S 753 mmHg 96%
    23:00 +21°C° 0,3 mm 4 m/S 753 mmHg 96%
    Mehr zeigen